2024-110A (60012 NORAD) Tracking and Keplerian Element Data

This shows tracking and keplerian element data for the satellite.

Feedback or suggestion? Click here.




ElementValue
Catalog60012
Name2024-110A
Epoch Orbit30
Epoch Day160.2454616
Epoch Year2024
RAAN246.9478
Inclination97.6019
Eccentricity0.0012399
Argument of Perigee281.7274
Mean Anonmoly78.2562
Mean Motion15.0604155
Decay Rate0.00012156
L11 60012U 24110A 24160.24546160 .00012156 00000+0 83512-3 0 9994
L22 60012 97.6019 246.9478 0012399 281.7274 78.2562 15.06041550 308



Live tracking and technical data element details for 2024-110A (NORAD 60012). 2024-110A can be tracked NOW for your location showing map with azimuth and elevation plus other details from your city location.







IsCatalogInMostPopularTable: catalog: 60012, numindb: 7
Update: records affected: 1



GetName: 60012 2024-110A

Hit Count: updated at: Tue, 16 Jul 2024 02:27:34 GMT